#timestamp,LO_Frequency,Hit,StdDev 
1677060015.3,286047006.6,P
1677060035.2,286047006.3,N
1677060055.0,286047006.2,N
1677060055.9,286047006.2,N
1677060075.8,286047008.7,N
1677060095.6,286047005.5,N
1677060115.5,286047005.3,N
1677060135.3,286047005.3,N
1677060155.1,286047005.5,N
1677060175.9,286047002.0,N
1677060195.7,286047003.5,N
1677060215.5,286046999.8,N
1677060235.4,286046998.3,N
1677060255.2,286046997.9,N
1677060275.1,286046997.0,N
1677060276.0,286046997.0,N
1677060295.8,286046995.1,N
1677060315.6,286046990.2,N
1677060335.5,286046988.3,N
1677060355.3,286046982.6,Y
1677060375.1,286046985.1,P
1677060395.9,286046983.1,N
1677060415.7,286046983.7,N
1677060435.6,286046986.3,N
1677060455.4,286046984.6,N
1677060475.2,286046984.9,N
1677060495.1,286046986.7,N
1677060496.0,286046986.7,N
1677060515.8,286046985.1,N
1677060535.6,286046987.4,N
1677060555.5,286046985.3,Y
1677060575.3,286047000.0,P
1677060595.2,286047003.8,N
1677060615.9,286047001.3,N
1677060635.7,286046996.6,N
1677060655.6,286046997.3,N
1677060675.4,286046999.1,N
1677060695.3,286046999.5,N
1677060715.1,286046994.5,N
1677060716.0,286046994.5,N
1677060735.8,286046993.1,N
1677060755.7,286046992.5,N
1677060775.5,286046990.6,N
1677060795.3,286046990.0,N
1677060815.2,286046989.0,N
1677060835.0,286046987.0,N
1677060835.9,286046987.0,N
1677060855.8,286046989.5,N
1677060875.6,286046988.6,N
1677060895.4,286046994.3,N
1677060915.3,286046994.2,N
1677060935.1,286046993.6,N
1677060936.0,286046993.6,N
1677060955.8,286046991.8,N
1677060975.7,286046990.2,N
1677060995.5,286046989.3,N
1677061015.3,286046985.9,Y
1677061035.2,286046988.7,P
1677061055.0,286046987.8,P
1677061055.9,286046986.3,P
1677061075.8,286046985.7,Y
1677061095.6,286046997.4,P
1677061115.4,286047002.7,N
1677061135.3,286047003.5,N
1677061155.1,286047003.7,N
1677061175.9,286047005.5,N
1677061195.7,286047006.6,N
1677061215.5,286047011.9,N
1677061235.4,286047012.5,N
1677061255.2,286047011.6,N
1677061275.0,286047005.1,N
1677061275.9,286047005.1,N
1677061295.8,286047002.6,N
1677061315.6,286046995.1,N
1677061335.4,286046996.2,N
1677061355.3,286046995.2,N
1677061375.1,286046992.2,N
1677061395.9,286046990.2,N
1677061415.7,286046992.2,N
1677061435.5,286046989.0,N
1677061455.4,286046993.0,N
1677061475.2,286046991.2,N
1677061495.0,286046992.4,N
1677061495.9,286046992.4,N
1677061515.8,286046996.7,N
1677061535.6,286047003.5,N
1677061555.5,286047003.2,N
1677061575.3,286047003.9,N
1677061595.1,286047000.4,N
1677061615.9,286047000.2,N
1677061635.7,286046998.8,N
1677061655.5,286046997.3,N
1677061675.4,286046994.7,N
1677061695.2,286046991.2,N
1677061715.1,286046986.3,N
1677061716.0,286046986.3,N
1677061735.8,286046980.2,N
1677061755.6,286046975.6,Y
1677061775.5,286046977.6,P
1677061795.3,286046984.8,N
1677061815.1,286046987.3,N
1677061835.9,286046989.3,N
1677061855.7,286046988.1,N
1677061875.6,286046987.0,N
1677061895.4,286046989.9,N
1677061915.2,286046993.1,N
1677061935.1,286046998.0,N
1677061936.0,286046998.0,N
1677061955.8,286046998.8,N
1677061975.6,286046994.9,N
1677061995.5,286046989.7,N
1677062015.3,286046977.8,Y
1677062035.2,286046976.1,P
1677062055.9,286046972.9,P
1677062075.7,286046969.4,P
1677062095.6,286046963.2,Y
1677062115.4,286046985.2,P
1677062135.2,286046982.9,P
1677062155.1,286046978.0,P
1677062156.0,286046978.0,Y
1677062175.8,286046996.4,P
1677062195.7,286046996.2,N
1677062215.5,286046993.4,N
1677062235.3,286046994.6,N
1677062255.2,286046993.8,N
1677062275.0,286046995.9,N
1677062275.9,286046995.9,N
1677062295.7,286046996.2,N
1677062315.6,286046995.5,N
1677062335.4,286046997.6,N
1677062355.3,286046991.9,N
1677062375.1,286047002.2,N
1677062376.0,286047002.2,N
1677062395.8,286047007.3,N
1677062415.7,286047026.7,Y
1677062435.5,286047030.4,P
1677062455.3,286046993.3,N
1677062475.2,286047006.5,N
1677062495.0,286047009.4,N
1677062495.9,286047009.4,N
1677062515.8,286046993.7,N
1677062535.6,286046996.6,N
1677062555.4,286047003.2,N
1677062575.3,286047011.8,N
1677062595.1,286047020.4,N
1677062615.8,286047023.0,N
1677062635.7,286047026.7,N
1677062655.5,286047022.5,N
1677062675.4,286047017.2,N
1677062695.2,286047009.0,N
1677062715.0,286047002.1,N
1677062715.9,286047002.1,N
1677062735.8,286046991.8,N
1677062755.6,286046985.9,N
1677062775.4,286046980.4,N
1677062795.3,286046978.7,N
1677062815.1,286046986.2,N
1677062835.9,286046995.6,N
1677062855.7,286047001.3,N
1677062875.5,286047010.8,N
1677062895.4,286047012.4,N
1677062915.2,286047013.2,N
1677062935.0,286047014.2,N
1677062935.9,286047014.2,N
1677062955.8,286047017.9,N
1677062975.6,286047020.1,N
1677062995.4,286047018.7,N
1677063015.3,286047017.2,N
1677063035.1,286047014.5,N
1677063055.9,286047007.0,N
1677063075.7,286046994.2,N
1677063095.5,286046989.8,N
1677063115.4,286046979.1,N
1677063135.2,286046984.5,N
1677063155.0,286046982.5,N
1677063155.9,286046982.5,N
1677063175.8,286046977.6,N
1677063195.6,286046978.4,N
1677063215.5,286046970.5,N
1677063235.3,286046976.8,N
1677063255.1,286046979.5,N
1677063275.9,286046983.3,N
1677063295.7,286046982.6,N
1677063315.5,286046979.9,N
1677063335.4,286046966.9,N
1677063355.2,286046956.7,N
1677063375.1,286046955.8,N
1677063376.0,286046955.8,N
1677063395.8,286046967.5,N
1677063415.6,286046969.7,N
1677063435.5,286046977.9,N
1677063455.3,286046982.2,N
1677063475.1,286046983.9,N
1677063495.9,286046979.5,N
1677063515.7,286046970.1,N
1677063535.6,286046960.8,N
1677063555.4,286046954.0,N
1677063575.2,286046942.2,Y
1677063595.1,286046962.8,P
1677063596.0,286046962.8,P
